Date,TemperatureHighF,TemperatureAvgF,TemperatureLowF,DewpointHighF,DewpointAvgF,DewpointLowF,HumidityHigh,HumidityAvg,HumidityLow,PressureMaxIn,PressureMinIn,WindSpeedMaxMPH,WindSpeedAvgMPH,GustSpeedMaxMPH,PrecipitationSumIn
2013-1-1,42.8,26.2,9.3,22.1,6.8,-9.5,68,45,22,29.87,29.61,19,7,30,0.00
2013-1-2,31.8,13.4,0.5,10.7,-5.2,-23.0,54,43,30,30.06,29.82,15,6,22,0.00
2013-1-3,26.4,8.6,-0.8,-8.6,-16.7,-23.6,52,31,19,30.07,29.90,12,5,18,0.00
2013-1-4,58.6,15.0,-1.5,34.9,2.4,-15.1,68,57,39,30.11,29.80,14,3,16,0.00
2013-1-5,44.8,30.0,15.8,19.4,11.6,3.0,62,47,24,30.26,29.80,16,6,24,0.00
2013-1-6,50.2,24.8,15.1,24.0,13.8,4.5,71,62,32,30.21,29.93,10,2,10,0.00
2013-1-7,40.8,27.2,11.7,25.6,11.5,-0.5,74,53,28,30.39,29.95,14,4,20,0.00
2013-1-8,46.4,26.0,6.8,24.4,10.3,-4.0,68,53,31,30.38,30.25,9,3,14,0.00
2013-1-9,41.9,31.8,14.5,28.3,20.3,5.6,72,62,50,30.41,29.97,12,5,17,0.00
2013-1-10,48.0,38.6,25.5,24.9,19.7,13.5,60,47,32,30.55,30.01,21,12,30,0.00
2013-1-11,44.8,30.7,19.8,31.2,19.7,12.2,81,64,44,30.54,30.22,8,2,11,0.14
2013-1-12,43.9,35.9,32.0,37.2,31.0,26.9,86,82,74,30.24,30.13,4,1,5,0.04
2013-1-13,46.2,39.9,34.0,43.2,36.0,29.4,90,86,83,30.17,29.97,8,2,11,0.00
2013-1-14,44.6,42.4,40.5,41.7,39.7,37.8,91,90,89,29.99,29.85,12,3,19,0.00
2013-1-15,50.2,28.8,24.4,29.9,16.9,14.2,71,61,38,30.35,30.25,8,1,8,0.00
2013-1-16,32.7,28.7,23.2,25.4,21.6,17.1,81,74,68,30.26,29.81,4,0,4,0.00
2013-1-17,50.7,31.8,22.6,29.6,22.0,16.9,80,69,40,29.95,29.81,12,2,17,0.21
2013-1-18,27.3,16.0,7.0,1.2,-13.0,-22.0,45,27,18,30.40,30.08,14,6,14,0.01
2013-1-19,47.3,38.3,14.2,21.4,16.5,-3.3,53,42,26,30.31,29.84,15,6,20,0.00
2013-1-20,53.4,35.1,22.1,30.4,13.4,-4.5,69,42,19,29.93,29.53,24,9,36,0.09
2013-1-21,34.5,22.0,12.2,9.6,-3.4,-16.2,65,35,18,30.07,29.81,14,4,21,0.00
2013-1-22,32.9,17.2,1.0,14.1,-0.3,-16.2,68,49,18,30.05,29.76,15,5,22,0.00
2013-1-23,17.4,3.8,-6.5,-8.4,-23.1,-32.6,48,27,18,30.12,30.03,15,6,24,0.00
2013-1-24,19.8,4.9,-10.1,-11.9,-24.1,-32.5,36,24,18,30.21,30.05,20,9,32,0.00
2013-1-25,25.9,12.0,0.3,-1.6,-16.5,-24.5,52,26,18,30.30,30.06,19,6,25,0.00
2013-1-26,27.5,14.7,6.3,1.1,-10.4,-19.6,55,34,18,30.21,30.00,20,9,27,0.00
2013-1-27,31.6,18.0,9.1,-3.8,-11.4,-21.8,45,27,18,30.47,30.20,16,8,21,0.00
2013-1-28,26.8,17.0,6.4,13.6,1.4,-19.9,73,52,23,30.46,30.03,5,1,7,0.00
2013-1-29,42.6,28.5,14.7,26.1,18.7,6.1,82,67,42,30.22,30.05,6,1,8,0.11
2013-1-30,52.5,37.9,30.9,49.7,33.8,26.1,91,85,80,30.15,29.42,10,2,12,0.04
2013-1-31,57.7,43.3,27.0,54.4,26.2,-4.3,92,56,24,29.55,28.91,23,14,44,1.71